www.pogodaiklimat.ru

Погода и климат >> Архив погоды >> Парагвай >> Посо Колорадо


ПОГОДА в Посо Колорадо

  • Прогноз погоды в Посо Колорадо
  • Монитор погоды в Посо Колорадо

АРХИВ ПОГОДЫ в Посо Колорадо

Время (UTC), дата Ветер
(напр.,м/с)
 
Видим.   Явления Облачность Т
(С)
Тd
(С)
f
(%)
Тe
(С)
Тes
(С)
Комфортность P
(гПа)
Po
(гПа)
Тmin
(С)
Tmax
(С)
R
(мм)
R24
(мм)
S
(см)
09 12.07 С 2 20 км ясно +16.8 +13.4 80 +17 +17 1008.8 997.5
12 12.07 СВ 3 20 км 5/0 2000 м
[Ac trans]
+20.6 +16.0 75 +24 +25 комфорт 1010.3 999.0 +16.8
18 12.07 С 6 20 км 5/0 2000 м
[Ac trans Ci fib]
+31.2 +20.1 52 +38 +40 очень
душно
1008.3 997.0
21 12.07 СВ 3 20 км 8/0 2000 м
[Ac und]
+28.8 +16.2 46 +32 +32 душно 1009.2 998.0
00 13.07 СВ 2 20 км 8/0 2000 м
[Ac und]
+23.0 +18.2 74 +29 +29 очень
душно
1010.4 999.0 +31.2
06 13.07 СВ 4 20 км 8/0 2000 м
[Ac und]
+23.0 +18.2 74 +29 +29 очень
душно
998.6
12 13.07 штиль 0 20 км 8/0 2000 м
[Ac und]
+20.0 +16.7 81 +22 +24 комфорт 1012.8 1001.3 +19.0
15 13.07 С 4 20 км 8/0 2000 м
[Ac und]
+24.6 +17.2 63 +28 +31 душно 1012.8 1001.5
18 13.07 С 5 20 км 8/0 2000 м
[Ac und]
+27.6 +18.7 58 +33 +34 очень
душно
1010.4 999.2
21 13.07 штиль 0 20 км 6/0 2000 м
[Ac und]
+27.4 +20.7 67 +34 +34 очень
душно
1009.5 998.3
00 14.07 штиль 0 20 км 5/0 2000 м
[Ac trans Ci fib]
+23.4 +19.9 81 +30 +30 очень
душно
1010.3 999.0 +29.0
03 14.07 СВ 2 20 км 4/0
[Ci fib]
+23.0 +19.9 83 +30 +30 очень
душно
1008.7 998.5
12 14.07 Ю 2 20 км 5/0 2000 м
[Ac trans Ci fib]
+18.5 +17.6 94 +20 +21 1013.6 1002.1 +18.2
15 14.07 Ю 3 20 км 5/0 2000 м
[Ac trans Ci fib]
+23.0 +18.2 74 +29 +36 очень
душно
1014.0 1002.6
18 14.07 Ю 2 20 км 4/0 2000 м
[Ac trans]
+27.0 +19.3 63 +33 +39 очень
душно
1011.5 1000.3
21 14.07 Ю 2 20 км 5/0 2000 м
[Ac trans]
+26.8 +19.3 63 +32 +32 очень
душно
1010.0 998.8
00 15.07 ЮВ 2 20 км 6/0 2000 м
[Ac und]
+21.0 +17.8 82 +26 +26 душно 1011.3 1000.0 +27.2
03 15.07 Ю 2 20 км 6/0 2000 м
[Ac und]
+20.0 +18.4 91 +24 +24 комфорт 1012.1 1000.8
09 15.07 Ю 2 20 км гроза без осадков 9/6 900 м
[Cb cap Ac As]
+19.2 +18.1 93 +22 +22 комфорт 1013.0 1001.2
12 15.07 ЮВ 2 20 км {ливн. осадки} 10/6 900 м
[Cu Sc Ac As]
+18.0 +17.5 97 +19 +19 1013.0 1001.9 +18.0 7
15 15.07 Ю 2 10 км дымка {дождь, ливн. осадки} 10/10 750 м
[Sc Ac As]
+19.0 +15.9 82 +21 +21 комфорт 1016.0 1004.7 6
18 15.07 Ю 1 20 км {дождь} 9/6 800 м
[Sc Ac As]
+21.6 +17.6 78 +26 +28 душно 1014.9 1003.5 0.0
21 15.07 ЮВ 2 20 км 8/3 800 м
[Cu Sc Ac trans]
+22.0 +17.1 74 +26 +26 душно 1014.7 1003.3
00 16.07 ЮВ 2 20 км 6/0 2000 м
[Ac und]
+21.0 +17.8 82 +26 +26 душно 1011.3 1000.0 +27.2
03 16.07 Ю 2 20 км ясно +15.6 +12.9 84 +15 +15 1019.9 1008.2
06 16.07 штиль 0 20 км ясно +13.2 +10.9 86 +13 +13 1019.8 1008.2
09 16.07 ЮЗ 2 20 км 5/0
[Ac trans]
+12.0 +9.8 86 +11 +11 1019.9 1008.0
12 16.07 Ю 2 20 км 3/0
[Ci fib]
+11.8 +10.6 92 +11 +12 1022.2 1010.2 +10.4
15 16.07 ЮВ 6 20 км 3/0
[Ci fib]
+20.2 +7.8 45 +21 +25 комфорт 1022.5 1010.9
18 16.07 В 5 20 км 3/0
[Ci fib]
+23.0 +7.3 36 +24 +28 комфорт 1019.7 1008.3
21 16.07 ЮВ 3 20 км 3/0
[Ci fib]
+21.6 +8.8 44 +23 +23 комфорт 1019.0 1006.5
00 17.07 штиль 0 20 км 3/0
[Ci fib]
+16.4 +11.6 73 +16 +16 1020.6 1008.9 +23.4
03 17.07 штиль 0 20 км ясно +13.2 +9.0 76 +13 +13 1021.1 1009.2
06 17.07 штиль 0 20 км ясно +10.2 +7.2 82 +10 +10 1021.3 1009.2
09 17.07 штиль 0 20 км 3/0
[Ac trans]
+9.8 +6.4 79 +9 +9 1020.5 1008.5
12 17.07 ЮВ 1 20 км 3/0
[Ac trans]
+10.4 +9.2 92 +10 +12 1021.7 1009.7 +9.2
15 17.07 В 2 20 км 3/0
[Ac trans Ci fib]
+20.4 +10.4 53 +23 +33 комфорт 1020.7 1009.1
18 17.07 В 3 20 км 4/0
[Ci fib]
+24.8 +10.4 40 +26 +32 жарко 1018.0 1006.6
21 17.07 В 2 20 км 6/0
[Cs]
+22.6 +13.2 55 +26 +26 жарко 1015.7 1004.3
00 18.07 штиль 0 20 км 6/0
[Cs]
+17.6 +14.7 83 +18 +18 1017.4 1005.8 +25.2
03 18.07 штиль 0 20 км 8/0
[Cs]
+16.0 +12.7 81 +16 +16 1017.5 1005.8
06 18.07 штиль 0 20 км 8/0 2000 м
[Ac und]
+15.4 +12.9 85 +15 +15 1016.7 1005.0
09 18.07 В 3 20 км 9/0 2000 м
[Ac As]
+16.6 +13.9 84 +16 +16 1014.8 1003.2
12 18.07 В 3 20 км 10/6 1000 м
[Sc Ac As]
+17.4 +13.1 76 +18 +18 1016.0 1004.4 +10.4
15 18.07 В 3 20 км 9/4 1000 м
[Cu Sc Ac As]
+20.2 +12.9 63 +23 +25 комфорт 1016.6 1005.0
18 18.07 В 3 20 км 9/1 1000 м
[Cu Sc Ac As]
+24.0 +15.7 60 +27 +30 жарко 1014.7 1003.2
21 18.07 В 3 20 км 10/5 1000 м
[Cu Sc Ac As]
+21.6 +15.7 69 +25 +25 комфорт 1014.2 1002.8
00 19.07 В 2 20 км 10/4 1000 м
[Sc Ac As]
+20.4 +16.7 79 +24 +24 комфорт 1015.1 1003.6 +24.8
03 19.07 ЮВ 3 20 км 9/0 2000 м
[Ac As]
+18.4 +15.9 85 +19 +19 1016.9 1005.3

 

Местоположение метеостанции Посо Колорадо (Парагвай): широта -23.38 долгота -58.90 высота над уровнем моря 100 м.

В архиве по умолчанию представлена погода в Посо Колорадо за последнюю неделю. Архивные данные за месяц целиком и за предыдущие месяцы, начиная с января 2011 года, Вы можете получить, выбрав интересующий диапазон дат из раскрывающегося списка и нажав кнопку "Ввод!".


*Определитесь, кто Вы:
робот инопланетянин человек

Внимание! Время в таблицах - всемирное. Для получения местного времени необходимо прибавить поправку, которая равна -4 ч.

Смотрите также архив погоды в соседних городах и на ближайших метеорологических станциях:

Погода в Грал Бругуез (Парагвай) (154 км)
Погода в Пуэрто-Касадо (Парагвай) (162 км)
Погода в Консепсьоне (Парагвай) (163 км)
Погода в Сан-Педро (Парагвай) (200 км)
Погода в Лас-Ломитасе (Аргентина) (225 км)
Погода в Марискал-Эстигаре (Парагвай) (232 км)
Погода в Порто Муртиньо (Мату-Гросу-ду-Сул, Бразилия) (233 км)
Погода в Асунсьоне (Парагвай) (251 км)
Погода в Пратс-Гиле (Парагвай) (277 км)
Погода в Бела-Виста (Мату-Гросу-ду-Сул, Бразилия) (281 км)

Пояснения к столбцам:

Ветер - указаны скорость ветра в м/с - средняя за 10 мин, порывы в срок и между сроками (в фигурных скобках) и направление, откуда дует ветер: С - северный, СВ - северо-восточный, В - восточный, ЮВ - юго-восточный, Ю - южный, ЮЗ - юго-западный, З - западный, СЗ - северо-западный.
Видимость - горизонтальная дальность видимости в метрах или километрах. При видимости от 1 до 10 км при отсутствии осадков обычно наблюдается дымка, при ухудшении видимости до 1 км и менее - туман. В сухую погоду видимость может ухудшаться дымом, пылью или мглою.
Явления - указаны атмосферные явления, наблюдавшиеся в срок или в последний час перед сроком; фигурными скобками обозначены явления, наблюдавшиеся между сроками (за 1-3 часа до срока); квадратными скобками обозначены град или гололедные отложения с указанием их диаметра в мм.
Облачность - указаны через наклонную черту общая и нижняя облачность в баллах и высота нижней границы облаков в метрах; квадратными скобками обозначены формы облаков: Ci - перистые, Cs - перисто-слоистые, Cc - перисто-кучевые, Ac - высококучевые, As - высокослоистые, Sc - слоисто-кучевые, Ns - слоисто-дождевые, Cu - кучевые, Cb - кучево-дождевые. Подробнее классификацию облаков см. в Атласе облаков (PDF).
T - Температура воздуха - температура, измеренная на высоте 2 м над землей.
Td - Температура точки росы - температура, при понижении до которой содержащийся в воздухе водяной пар достигнет насыщения.
f - Относительная влажность воздуха - влажноcть воздуха, измеренная на высоте 2 м над землей.
Te - Эффективная температура - температура, которую ощущает одетый по сезону человек в тени. Характеристика душности погоды. При расчете учитывается влияние влажности воздуха и скорости ветра на теплоощущения человека.
Tes - Эффективная температура на солнце - температура, которую ощущает человек, с поправкой на солнечный нагрев. Характеристика знойности погоды. Зависит от высоты солнца над горизонтом, облачности и скорости ветра. Ночью, в пасмурную погоду, а также при ветре 12 м/с и более поправка равна нулю.
P - Атмосферное давление - приведенное к уровню моря атмосферное давление.
Po - Атмосферное давление - измеренное на уровне метеостанции атмосферное давление.
Tmin - Минимальная температура - минимум температуры воздуха на высоте 2 м над землей.
Tmax - Максимальная температура - максимум температуры воздуха на высоте 2 м над землей.
R - Количество осадков - Количество выпавших осадков за период времени, мм. При наведении курсора мыши на число - период времени, за который выпало указанное количество осадков.
R24 - Количество осадков - Количество выпавших осадков за 24 часа, мм.
S - Снежный покров - Высота снежного покрова, см. При наведении курсора мыши на число - состояние снежного покрова и степень покрытия местности в баллах.